Date,TemperatureHighF,TemperatureAvgF,TemperatureLowF,DewpointHighF,DewpointAvgF,DewpointLowF,HumidityHigh,HumidityAvg,HumidityLow,PressureMaxIn,PressureMinIn,WindSpeedMaxMPH,WindSpeedAvgMPH,GustSpeedMaxMPH,PrecipitationSumIn
2013-1-1,29,26,23,20,18,14,71,69,68,29.78,29.76,9,6,12,0.00
2013-1-2,28,23,10,19,12,-51,83,68,4,30.01,29.84,10,3,13,0.00
2013-1-3,21,14,-2,16,6,-3,95,70,56,30.10,29.88,3,1,5,0.00
2013-1-4,41,30,21,29,23,16,95,75,58,29.90,29.76,4,1,10,0.00
2013-1-5,37,30,19,30,24,17,94,79,58,30.14,29.83,8,3,13,0.00
2013-1-6,43,31,22,34,28,21,100,89,66,30.07,29.84,5,1,7,0.00
2013-1-7,37,28,13,35,13,-70,98,77,1,30.29,29.90,4,1,8,0.00
2013-1-8,44,26,13,32,-12,-70,100,47,1,30.27,30.16,7,1,7,0.00
2013-1-9,43,28,16,35,-5,-43,98,40,5,30.29,29.96,6,1,16,0.00
2013-1-10,43,35,22,33,25,-41,100,73,4,30.46,30.09,10,4,20,0.00
2013-1-11,40,36,22,36,4,-56,100,45,1,30.44,30.04,9,4,11,0.00
2013-1-12,52,42,39,50,-6,-37,97,20,2,30.07,30.01,4,1,7,0.00
2013-1-13,51,45,42,2,-4,-13,17,12,7,30.07,29.91,6,1,10,0.00
2013-1-14,49,43,35,41,16,-25,82,47,4,30.25,29.81,8,3,12,0.00
2013-1-15,38,33,23,30,21,-64,98,73,1,30.25,30.14,3,0,5,0.00
2013-1-16,35,32,30,35,-3,-59,100,45,1,30.17,29.74,1,0,1,0.00
2013-1-17,38,33,29,34,-4,-58,94,36,1,29.96,29.76,9,1,10,0.00
2013-1-18,23,19,11,8,4,0,69,52,45,30.27,30.22,8,4,11,0.00
2013-1-19,45,41,37,30,28,25,67,60,55,29.99,29.84,8,4,11,0.00
2013-1-20,39,30,22,37,20,13,94,68,55,29.94,29.57,10,4,13,0.00
2013-1-21,31,21,15,21,10,-67,100,71,1,29.97,29.67,5,2,9,0.00
2013-1-22,19,14,3,16,5,-3,97,70,43,29.98,29.66,10,3,12,0.00
2013-1-23,10,3,-4,0,-5,-10,87,67,49,30.06,29.95,9,3,16,0.00
2013-1-24,15,2,-10,2,-6,-13,94,72,45,30.21,29.98,10,3,15,0.00
2013-1-25,21,10,1,13,2,-5,94,69,46,30.26,29.93,9,3,18,0.00
2013-1-26,21,11,0,11,5,-2,96,78,54,30.21,29.91,8,2,12,0.00
2013-1-27,27,11,-5,9,1,-7,98,68,35,30.40,30.17,8,1,8,0.00
2013-1-28,33,24,7,29,-1,-48,95,56,2,30.34,29.85,7,2,9,0.00
2013-1-29,42,36,29,39,-9,-57,98,30,1,30.09,29.87,10,2,17,0.00
2013-1-30,58,52,39,13,2,-11,17,13,10,29.93,29.45,11,6,15,0.00
2013-1-31,39,31,22,33,19,-64,99,72,1,29.54,29.12,10,3,20,0.00
2013-2-1,26,21,17,21,13,8,97,73,58,30.02,29.56,13,3,18,0.00
2013-2-2,30,18,4,18,11,4,100,75,50,30.07,29.90,10,2,10,0.00
2013-2-3,32,19,8,20,1,-67,100,64,1,29.92,29.65,3,0,5,0.00
2013-2-4,23,18,9,19,11,-62,99,80,2,29.82,29.65,9,2,11,0.00
2013-2-5,32,21,12,22,14,-60,100,77,2,29.89,29.77,3,1,5,0.00
2013-2-6,33,25,15,30,9,-60,100,62,1,30.24,29.78,9,3,16,0.00
2013-2-7,27,18,5,11,7,-59,100,65,3,30.40,30.22,7,2,7,0.00
2013-2-8,29,25,15,27,16,-46,100,77,3,30.24,29.69,9,3,13,0.00
2013-2-9,23,15,0,11,-2,-71,96,55,1,30.20,29.71,13,7,23,0.00
2013-2-10,33,9,-10,12,2,-12,96,77,41,30.36,30.12,3,0,7,0.00
2013-2-11,30,26,10,17,13,8,92,58,46,30.14,30.01,7,4,14,0.00
2013-2-12,37,36,34,32,31,30,85,83,82,29.78,29.69,12,6,17,0.00
2013-2-13,41,34,28,30,26,22,98,72,54,29.78,29.63,4,1,7,0.00
2013-2-14,41,30,17,29,21,-56,100,76,2,29.85,29.62,6,1,8,0.00
2013-2-15,51,38,30,36,30,26,92,74,55,29.90,29.80,7,2,9,0.00
2013-2-16,33,28,22,29,15,-50,97,64,2,29.92,29.73,9,3,12,0.00
2013-2-17,25,17,9,10,6,-1,75,61,44,29.80,29.55,15,8,21,0.00
2013-2-18,26,14,5,9,2,-3,87,58,38,30.07,29.79,11,5,19,0.00
2013-2-19,44,28,12,37,14,-20,98,65,8,30.02,29.54,12,2,15,0.00
2013-2-20,31,26,23,30,18,-36,100,72,4,29.79,29.58,13,5,18,0.00
2013-2-21,23,19,17,18,13,10,91,76,67,30.24,29.76,13,5,23,0.00
2013-2-22,40,28,17,30,22,15,98,82,63,30.30,30.13,5,2,8,0.00
2013-2-23,38,34,32,38,27,-44,99,85,2,30.13,29.78,6,3,10,0.00
2013-2-24,36,32,29,34,-1,-60,98,39,1,29.87,29.68,4,2,12,0.00
2013-2-25,42,34,21,32,21,-60,100,72,1,30.14,29.87,4,1,7,0.00
2013-2-26,47,36,23,35,14,-59,99,54,1,30.21,29.95,7,2,7,0.00
2013-2-27,47,38,32,42,19,-56,99,65,1,29.95,29.46,11,2,19,0.00
2013-2-28,42,38,34,40,3,-32,99,37,4,29.53,29.48,3,1,6,0.00
2013-3-1,37,33,30,36,-4,-56,100,34,1,29.67,29.52,5,1,7,0.00
2013-3-2,33,29,25,28,9,-61,100,71,1,29.68,29.62,7,3,8,0.00
2013-3-3,30,25,21,28,19,-64,97,86,1,29.67,29.60,8,4,11,0.00
2013-3-4,30,26,23,26,23,21,95,88,77,29.81,29.65,12,5,17,0.00
2013-3-5,39,31,25,31,26,-51,100,84,2,30.00,29.81,8,3,11,0.00
2013-3-6,44,35,24,38,8,-63,100,57,1,30.05,29.93,8,2,15,0.00
2013-3-7,38,34,30,34,16,-57,100,62,1,30.06,29.98,9,4,11,0.00
2013-3-8,39,31,28,32,1,-29,94,41,6,30.19,29.98,14,7,16,0.00
2013-3-9,49,48,45,31,30,29,54,51,48,30.22,30.19,9,6,9,0.00
2013-3-10,58,54,43,35,32,29,67,44,35,30.23,30.13,7,4,12,0.00
2013-3-11,51,42,35,42,36,30,89,76,60,30.20,29.98,8,3,13,0.00
2013-3-12,52,46,37,48,-6,-47,99,20,1,29.95,29.62,8,3,12,0.00
2013-3-13,46,36,25,34,6,-58,100,46,1,29.80,29.70,11,3,13,0.00
2013-3-14,33,27,24,28,17,11,83,67,54,29.82,29.74,13,5,17,0.00
2013-3-15,40,29,17,33,20,-27,97,72,7,29.85,29.59,7,2,14,0.00
2013-3-16,37,28,16,28,19,14,99,70,47,29.83,29.67,9,2,9,0.00
2013-3-17,35,27,16,19,13,8,85,58,37,30.21,29.82,15,4,17,0.00
2013-3-18,44,27,10,29,12,4,98,59,28,30.34,30.01,13,2,14,0.00
2013-3-19,36,32,28,35,9,-46,100,61,2,30.01,29.61,8,2,12,0.00
2013-3-20,37,37,37,26,26,26,64,64,64,29.69,29.69,3,3,3,0.00
2013-3-21,39,33,23,21,17,13,67,52,42,29.68,29.56,7,3,9,0.00
2013-3-22,37,31,20,29,24,12,95,76,65,29.72,29.60,9,3,12,0.00
2013-3-23,42,33,27,28,26,23,98,75,52,29.82,29.67,16,5,22,0.00
2013-3-24,46,36,30,28,26,25,82,68,48,29.84,29.70,8,3,11,0.00
2013-3-25,49,36,27,32,28,25,95,75,49,29.71,29.46,10,2,10,0.00
2013-3-26,44,36,26,32,29,23,95,78,55,29.78,29.53,9,2,11,0.00
2013-3-27,53,36,24,37,30,22,100,79,50,29.90,29.74,8,2,13,0.00
2013-3-28,51,42,35,41,32,-32,100,75,4,30.03,29.87,4,2,8,0.00
2013-3-29,50,40,26,39,17,-50,99,54,2,30.06,29.98,8,2,11,0.00
2013-3-30,56,38,23,35,17,-52,100,54,2,30.06,29.98,6,1,10,0.00
2013-3-31,57,34,26,41,27,-100,97,83,43,30.06,29.71,8,1,11,0.00
2013-4-1,56,40,31,50,10,-50,95,43,1,29.82,29.52,19,3,19,0.00
2013-4-2,35,31,25,28,22,15,98,70,48,29.94,29.76,22,4,22,0.00
2013-4-3,40,31,23,27,21,17,98,67,45,30.19,29.91,13,6,18,0.00
2013-4-4,45,30,21,29,22,19,97,76,45,30.29,29.91,9,2,9,0.00
2013-4-5,54,45,35,34,29,24,84,55,39,29.91,29.71,13,4,29,0.00
2013-4-6,47,34,26,32,16,9,87,50,27,30.19,29.91,8,4,17,0.00
2013-4-7,57,44,26,44,29,17,85,56,38,30.18,29.82,12,5,19,0.00
2013-4-8,64,50,36,44,39,-44,100,69,2,30.06,29.89,9,1,13,0.00
2013-4-9,59,56,51,54,50,46,98,81,64,29.98,29.78,11,3,12,0.00
2013-4-10,60,51,46,56,21,-8,99,42,7,29.93,29.77,6,2,7,0.00
2013-4-11,46,40,32,41,21,-20,100,58,9,30.03,29.80,11,5,12,0.00
2013-4-12,42,36,32,41,-6,-42,98,28,2,30.03,29.70,6,1,12,0.00
2013-4-13,54,46,37,47,27,-13,99,58,8,29.87,29.71,4,1,8,0.00
2013-4-14,47,41,30,40,22,-54,100,61,1,30.17,29.88,9,3,13,0.00
2013-4-15,66,42,23,45,22,-62,100,57,1,30.25,30.13,6,1,7,0.00
2013-4-16,62,58,54,58,49,-6,99,79,8,30.22,30.00,10,6,18,0.00
2013-4-17,63,51,39,45,36,-18,99,65,5,30.24,30.10,7,2,13,0.00
2013-4-18,65,44,30,52,11,-56,98,44,1,30.25,30.01,8,2,15,0.00
2013-4-19,72,64,44,68,38,-19,100,57,3,30.01,29.53,12,5,15,0.00
2013-4-20,53,44,34,44,21,-15,93,47,8,30.25,29.67,12,3,14,0.00
2013-4-21,42,34,29,27,24,22,79,69,49,30.57,30.25,9,3,13,0.00
2013-4-22,62,36,28,35,28,24,92,74,36,30.60,30.47,8,2,11,0.00
2013-4-23,56,41,29,45,35,28,98,82,64,30.44,30.16,2,1,6,0.00
2013-4-24,76,52,31,58,21,-40,94,46,3,29.99,29.71,6,2,9,0.00
2013-4-25,57,48,36,39,32,-13,90,62,6,30.21,29.85,9,4,13,0.00
2013-4-26,59,42,31,43,26,-48,100,68,2,30.40,30.18,8,2,9,0.00
2013-4-27,66,50,29,40,26,-57,97,52,1,30.37,30.22,6,2,10,0.00
2013-4-28,75,57,36,53,44,35,100,66,45,30.23,30.07,2,1,4,0.00
2013-4-29,62,57,53,48,47,44,80,68,61,30.17,30.11,8,3,10,0.00
2013-4-30,76,61,49,54,48,36,90,65,27,30.25,30.16,3,1,9,0.00
2013-5-1,81,61,40,51,42,34,81,54,32,30.38,30.23,4,1,7,0.00
2013-5-2,84,65,44,55,49,42,100,62,34,30.39,30.21,5,2,9,0.00
2013-5-3,77,61,51,48,41,32,68,49,35,30.38,30.26,6,1,8,0.00
2013-5-4,79,60,43,56,45,34,98,62,34,30.30,30.13,5,2,9,0.00
2013-5-5,82,58,40,51,42,36,87,60,34,30.24,30.09,2,0,7,0.00
2013-5-6,80,57,40,52,38,-30,94,61,4,30.17,30.04,3,1,5,0.00
2013-5-7,87,66,48,64,30,-45,100,41,1,30.11,30.01,6,1,7,0.00
2013-5-8,77,66,56,69,33,-38,99,52,1,30.10,29.95,6,2,9,0.00
2013-5-9,78,63,52,67,38,-8,100,52,6,29.98,29.83,2,0,7,0.00
2013-5-10,82,64,50,66,31,-100,81,43,8,29.92,29.82,3,1,4,0.00
2013-5-11,70,64,57,68,22,-35,100,38,1,29.82,29.65,6,1,7,0.00
2013-5-12,62,54,40,57,34,-100,100,63,1,29.82,29.63,7,2,12,0.00
2013-5-13,52,45,34,40,32,-53,99,66,1,30.03,29.81,8,2,13,0.00
2013-5-14,63,46,34,42,37,33,100,75,42,30.06,29.96,5,1,8,0.00
2013-5-15,69,50,32,60,32,-58,100,70,1,30.00,29.59,8,2,13,0.00
2013-5-16,81,55,43,58,-12,-100,89,35,1,29.80,29.65,6,2,15,0.00
2013-5-17,73,57,44,50,38,-100,97,66,4,30.16,29.81,9,2,12,0.00
2013-5-18,79,62,43,56,48,-51,100,67,1,30.25,30.16,5,1,8,0.00
2013-5-19,64,58,52,64,16,-39,100,45,1,30.26,30.11,5,1,7,0.00
2013-5-20,87,72,59,75,46,-13,100,58,4,30.12,29.91,5,1,5,0.00
2013-5-21,93,72,61,78,23,-14,83,24,3,29.93,29.77,7,1,10,0.00
2013-5-22,85,72,63,81,26,-31,100,29,1,29.86,29.78,6,1,9,0.00
2013-5-23,77,71,65,76,29,-32,100,34,1,29.82,29.72,6,1,10,0.00
2013-5-24,67,53,44,30,10,0,27,18,12,29.96,29.63,8,2,12,0.00
2013-5-25,45,44,42,8,4,-4,23,19,13,29.93,29.83,9,4,14,0.00
2013-5-26,53,46,40,52,9,-35,99,34,2,30.09,29.80,6,2,11,0.00
2013-12-3,41,39,31,39,36,29,97,91,86,29.90,29.83,3,1,5,0.00
2013-12-4,45,37,30,37,32,28,99,83,69,30.07,30.01,3,1,4,0.00
2013-12-5,55,55,55,55,55,55,100,100,100,29.88,29.88,7,7,8,0.00
2013-12-6,40,38,35,38,36,34,98,94,91,30.01,29.97,7,3,8,0.00
2013-12-7,35,30,27,30,22,-100,100,74,66,30.38,30.18,10,4,14,0.00
2013-12-8,33,28,22,25,21,19,94,75,63,30.49,30.35,4,0,6,0.00
2013-12-9,39,32,28,37,27,19,98,84,67,30.34,29.85,7,3,10,0.00
2013-12-10,35,33,27,35,30,24,100,90,76,29.88,29.76,6,2,10,0.00
2013-12-11,31,26,21,23,18,12,96,72,55,30.10,30.02,5,1,10,0.00
2013-12-12,21,17,11,19,7,0,90,64,40,30.20,29.92,6,2,9,0.00
2013-12-13,28,20,12,25,11,4,87,68,55,30.27,29.85,5,2,11,0.00
2013-12-14,17,13,8,11,4,-100,86,70,60,30.45,29.96,5,2,6,0.00
2013-12-15,12,12,12,8,8,8,85,85,85,29.90,29.90,3,3,4,0.00
2013-12-16,23,14,0,14,6,-4,87,72,61,30.09,29.90,6,2,10,0.00
2013-12-17,8,-4,-7,4,-8,-11,85,83,81,30.10,30.01,0,0,0,0.00
2013-12-18,32,29,26,25,24,23,87,82,76,29.93,29.88,0,0,0,0.00
2013-12-19,40,32,27,29,26,24,95,80,58,30.02,29.87,5,1,8,0.00
2013-12-20,46,39,30,41,36,29,99,88,63,30.00,29.83,4,1,6,0.00
2013-12-21,54,46,44,46,36,-100,98,81,72,29.86,29.77,5,1,10,0.00
2013-12-24,30,24,16,24,18,10,98,79,69,30.18,30.01,7,4,12,0.00
2013-12-25,20,13,6,11,6,1,81,72,59,30.38,30.20,6,2,12,0.00
2013-12-26,30,25,20,28,21,11,100,84,65,30.27,30.00,8,4,13,0.00
2013-12-27,34,32,29,29,27,25,92,79,72,30.19,30.12,4,1,5,0.00
2013-12-28,46,34,23,35,28,-100,100,81,64,30.15,29.95,6,1,10,0.00
2013-12-29,44,43,41,37,35,34,82,75,67,29.84,29.75,3,2,6,0.00
2013-12-30,25,17,6,20,11,4,90,75,65,30.10,29.92,0,0,0,0.00
2013-12-31,24,14,4,19,10,3,97,85,61,30.07,29.89,7,2,14,0.00
2014-1-1,25,18,9,16,11,3,99,75,58,30.26,30.07,7,1,9,0.00
2014-1-2,19,11,3,18,9,0,95,90,86,30.23,30.05,6,2,7,0.00